COSMOS 2251 DEB, 34964

Orbit data source: Space-Track

COSMOS 2251 DEB, 34964 is space debris in LEO originally from a launch on Wed, 16 Jun 1993 UTC launched from the Plesetsk Missile And Space Complex (PKMTR). The debris from Iridium 33, an American commercial communications satellite, has been tracked extensively since its accidental collision with the defunct Russian satellite Cosmos 2251 in 2009. This event, occurring at high speed in low Earth orbit (LEO), generated thousands of pieces of space debris, significantly increasing the risk of further collisions. The Iridium 33 debris cloud has impacted space traffic management and orbital debris mitigation strategies, making it a subject of ongoing study in space situational awareness.

Loading next visibility...
Identifier
34964, 1993-036AET
Orbit
LEO
Country
Flag of CISCIS
Related business
Manufacturer
Unknown
Mission
Spacecraft
Bus & Motor
Unknown
Mass
Unknown
Launch date (UTC)
1993-06-16 (33 years ago)
Launch vehicle
Unknown
Launch site
Plesetsk Missile And Space Complex (PKMTR)
Object type
Payload
Rocket body
Debris
Shape & HBR
Unknown shape, 0.1 m
Radar Cross Section
Small (<0.1 m²)

Expand to show TLE details & history
Last TLE update: 2 weeks ago

TLE from 2 weeks ago
0 COSMOS 2251 DEB
1 34964U 93036AET 26197.72455579  .00001572  00000-0  87059-3 0  9993
2 34964  73.9718 331.6087 0209417 143.1520 218.4219 14.01566407875034
Epoch: 2026-07-16T17:23Z
TLE epoch observation values (Epoch: 2026-07-16T17:23:21.620Z)
Latitude
0.00002°
Longitude
136.20672°
Altitude
1,011.386 km
Speed
7.285 km/s
True Right ascension
22h 06m 26s
True Declination
0° 00' 00"
Sunlit
Object was in full shadow at epoch
Visualization orbit readout
Latitude
Unknown
Longitude
Unknown
Altitude
Unknown
Speed
Unknown
Apparent Right ascension
Unknown
Apparent Declination
Unknown
Sunlit
N/A
Visualization observer readout
Local Sidereal Time
08:45:59
Azimuth
Unknown
Elevation
Unknown
Doppler factor
Unknown
Orbital elements
Apogee altitude
1,038.166 km
Perigee altitude
733.918 km
Semi-major axis
7,264.179 km
Eccentricity
0.02094
Inclination
73.9718°
RAAN
331.6087°
Arg. of periapsis
143.152°
True anomaly
216.96074°
Mean anomaly
218.4219°
Eccentric anomaly
217.68834°
Mean motion
3.50561 °/min
Orbital period
102.69 mins
BSTAR
0.00087059
Loading maneuver chart data...
Computing Atmospheric mass density...

Documentation

Showing up to 5 results
|